User: anonymous
Location: Ostrava
(49.8330°N, 18.2830°E)
Time: 19:52:36
(UTC+02:00)
Language:

Lacrosse 5 - Orbit

View from above orbital plane
View from above orbital plane
View from above satellite
View from above satellite

Ground track
Ground track

The orbit data is extracted from the following two-line orbital elements,

1 28646U 05016A   14267.79671632 0.00000100  00000-0  23782-4 0    09
2 28646  57.0090 245.6587 0011602 106.0265 253.9735 14.53512735    06
Epoch (UTC): 24 September 2014 19:07:16
Eccentricity: 0.0011602
inclination: 57.0090°
perigee height: 706 km
apogee height: 722 km
right ascension of ascending node: 245.6587°
argument of perigee: 106.0265°
revolutions per day: 14.53512735
mean anomaly at epoch: 253.9735°
orbit number at epoch: 0

The dashed part of the orbit path shows where the satellite is in the earth's shadow,  

DLR